Find Starlink 3730

NORAD ID: 52139 Int'l Des: 2022-029 Owner: SPXS Country: US Constellation: starlink operational
LEOCIRCULAR

实时位置

正在加载3D地球...

关于 Starlink 3730

正在加载描述...

即将过境

Passes for default location (London). Set your location on the main map for personalized predictions.

高度历史

Loading altitude history...

两行轨道根数

1 52139U 22029BD 26106.72912613 -.00000172 00000-0 72708-5 0 9991
2 52139 53.2164 268.3535 0001347 92.8764 267.2383 15.08839118226539
Epoch: Apr 16, 2026 • Age: 23 hours

当前状态

高度 543.6 km
速度 7.59 km/s
星下点 -13.54°S, 0.84°W
发射日期 Mar 19, 2022
运行时间 4 years
类型 internet

技术详情

分类 Payload
质量 297.00 kg
干质量 275.00 kg
总质量 297.00 kg
长度 0.20 m
直径 2.80 m
跨度 9.00 m
形状 Box + pan
制造商 SPXS
平台类型 Starlink
阶段状态 In Orbit
所有者/国家 SPXS/US

Most Searched